User: anonymous   Login
Location: Unspecified
(0.0000°N, 0.0000°E)
Time: 12:48:06
(UTC+00:00)
Language:

IGS 8A - Orbit

View from above orbital plane
View from above orbital plane
View from above satellite
View from above satellite

Ground track
Ground track

The orbit data is extracted from the following two-line orbital elements,

1 39061U 13002A   17225.00053725 0.00000000  00000-0  00000-0 0    07
2 39061  97.4989 344.6741 0003000 357.3339   2.6660 15.17610970    09
Epoch (UTC): 13 August 2017 00:00:46
Eccentricity: 0.0003000
inclination: 97.4989°
perigee height: 511 km
apogee height: 515 km
right ascension of ascending node: 344.6741°
argument of perigee: 357.3339°
revolutions per day: 15.17610970
mean anomaly at epoch: 2.6660°
orbit number at epoch: 0

The dashed part of the orbit path shows where the satellite is in the earth's shadow,  

DLR